EDT,Max TemperatureF,Mean TemperatureF,Min TemperatureF,Max Dew PointF,MeanDew PointF,Min DewpointF,Max Humidity, Mean Humidity, Min Humidity, Max Sea Level PressureIn, Mean Sea Level PressureIn, Min Sea Level PressureIn, Max VisibilityMiles, Mean VisibilityMiles, Min VisibilityMiles, Max Wind SpeedMPH, Mean Wind SpeedMPH, Max Gust SpeedMPH,PrecipitationIn, CloudCover, Events, WindDirDegrees
2013-7-1,84,80,73,73,73,72,94,84,66,30.04,29.95,29.87,10,10,10,17,12,24,0.04,4,Rain,181
2013-7-2,88,80,73,77,73,71,94,82,69,30.12,30.07,30.00,10,10,10,16,7,26,0.02,3,Rain,144
2013-7-3,90,82,75,76,73,71,94,85,61,30.15,30.11,30.08,10,9,2,15,8,23,0.15,2,Rain,133
2013-7-4,90,82,75,76,73,71,94,83,57,30.19,30.14,30.11,10,9,1,23,7,36,0.43,3,Rain-Thunderstorm,146
2013-7-5,89,81,73,76,73,69,94,81,52,30.18,30.15,30.09,10,9,6,16,5,26,0.00,2,,110
2013-7-6,91,82,75,74,73,69,91,72,52,30.15,30.11,30.06,10,10,10,14,9,20,0.00,1,,129
2013-7-7,91,84,77,75,73,68,90,72,48,30.17,30.12,30.07,10,10,9,13,8,21,0.00,1,,111
2013-7-8,91,84,77,75,73,70,90,71,50,30.19,30.15,30.10,10,10,10,10,6,,0.00,1,,99
2013-7-9,93,84,75,75,71,65,94,68,42,30.20,30.15,30.09,10,10,10,12,5,20,0.00,1,,98
2013-7-10,93,83,75,74,72,69,91,73,48,30.12,30.06,29.99,10,10,10,13,4,,0.01,2,Rain-Thunderstorm,125
2013-7-11,93,84,77,74,72,69,88,74,50,30.05,29.99,29.94,10,10,9,14,6,28,0.00,1,Rain,192
2013-7-12,88,80,75,76,74,72,91,81,67,29.97,29.95,29.92,10,9,2,9,4,,0.07,2,Rain,205
2013-7-13,91,81,73,74,73,71,94,86,55,30.02,29.97,29.93,10,8,0,15,7,31,1.43,4,Fog-Rain-Thunderstorm,184
2013-7-14,90,82,75,76,73,72,94,87,55,30.12,30.06,30.00,10,9,1,18,8,25,0.46,4,Rain,122
2013-7-15,88,80,73,79,73,71,94,84,63,30.16,30.11,30.06,10,8,1,20,6,24,0.80,3,Rain,66
2013-7-16,90,82,75,74,73,70,94,80,53,30.19,30.16,30.13,10,10,10,17,6,30,0.00,2,Rain-Thunderstorm,92
2013-7-17,93,84,75,75,73,70,94,76,48,30.20,30.15,30.11,10,10,10,17,7,22,0.00,1,,69
2013-7-18,89,81,75,74,72,69,94,78,59,30.15,30.12,30.07,10,10,10,17,6,30,0.02,2,Rain,116
2013-7-19,88,80,73,74,72,71,94,87,65,30.16,30.11,30.07,10,9,1,15,7,25,0.52,4,Rain-Thunderstorm,177
2013-7-20,89,81,73,77,73,70,97,86,61,30.13,30.09,30.04,10,8,0,15,6,24,1.16,3,Fog-Rain-Thunderstorm,176
2013-7-21,91,82,73,78,74,69,94,82,59,30.14,30.10,30.05,10,10,2,16,5,28,0.09,2,Rain,191
2013-7-22,88,82,75,79,75,73,94,85,65,30.14,30.11,30.08,10,9,5,9,5,,0.00,1,,214
2013-7-23,82,77,75,74,73,73,94,89,82,30.09,30.03,29.99,10,9,5,10,6,22,0.09,2,Rain,244
2013-7-24,86,80,73,77,75,71,94,86,70,30.02,29.95,29.90,10,8,0,15,7,31,0.65,4,Fog-Rain,246
2013-7-25,84,80,75,76,74,71,94,83,69,30.00,29.95,29.88,10,9,2,20,8,36,0.14,3,Rain,257
2013-7-26,95,84,75,77,74,69,94,80,49,30.03,30.00,29.97,10,9,2,15,3,21,0.09,2,Rain-Thunderstorm,345
2013-7-27,93,84,77,77,74,66,96,76,44,30.02,29.98,29.91,10,9,3,12,2,,0.00,1,,268
2013-7-28,89,80,73,76,73,70,94,84,65,30.09,30.03,29.96,10,8,0,17,4,34,1.01,3,Fog-Rain,197
2013-7-29,91,82,73,75,73,70,93,75,50,30.18,30.11,30.05,10,10,6,15,4,21,0.00,1,,184
2013-7-30,93,85,77,78,74,71,94,76,52,30.20,30.15,30.09,10,10,2,12,3,,0.10,2,Rain-Thunderstorm,158
2013-7-31,93,83,73,77,74,69,94,80,45,30.16,30.10,30.03,10,8,0,17,5,23,1.83,3,Fog-Rain-Thunderstorm,165